Regional Weather Roundup
Issued by NWS

Home | Current Version | Previous Version | Text Only | Print | Product List | Glossary Off
Versions: 1 2 3 4 5 6 7 8 9 10 11 12 13 14 15 16 17 18 19 20 21 22 23 24 25 26 27 28 29 30 31 32 33 34 35 36 37 38 39 40 41 42 43 44 45 46 47 48 49 50

000
ASUS43 KLOT 211303
RWRIL

ILLINOIS REGIONAL WEATHER ROUNDUP
NATIONAL WEATHER SERVICE CHICAGO/ROMEOVILLE IL
700 AM CST TUE NOV 21 2017

NOTE: "FAIR" INDICATES FEW OR NO CLOUDS BELOW 12,000 FEET WITH NO
SIGNIFICANT WEATHER AND/OR OBSTRUCTIONS TO VISIBILITY.

* THESE STATIONS ARE NOT UNDER NWS QUALITY CONTROL. THEY ALSO MAY NOT
  REPORT WEATHER SUCH AS PRECIPITATION OR FOG.

ILZ001-002-007-009-015-016-024-211400-
NORTHWEST ILLINOIS

CITY           SKY/WX    TMP DP  RH WIND       PRES   REMARKS
MOLINE         CLOUDY    44  28  53 W10       29.75R
STERLING*        N/A    N/A N/A N/A MISG        N/A
SAVANNA*       CLOUDY    42  30  61 W10       29.73R
$$

ILZ003-004-008-010-011-017-018-211400-
NORTH CENTRAL ILLINOIS

CITY           SKY/WX    TMP DP  RH WIND       PRES   REMARKS
ROCKFORD       CLOUDY    43  31  62 SW8       29.69R
FREEPORT*      CLOUDY    40  32  71 W9        29.70R
ROCHELLE*      CLOUDY    40  33  77 SW9       29.71R
DE KALB*       CLOUDY    40  33  75 SW10      29.70R
PERU*          CLOUDY    41  31  67 SW14      29.74R
$$

ILZ005-006-012>014-019>023-211400-
NORTHEAST ILLINOIS

CITY           SKY/WX    TMP DP  RH WIND       PRES   REMARKS
CHICAGO-OHARE  CLOUDY    42  31  64 SW13      29.67R
CHICAGO-MIDWAY CLOUDY    43  32  65 SW15      29.70R
AURORA         PTCLDY    39  32  76 SW13      29.70R WCI  31
LANSING*       PTCLDY    38  33  82 SW13      29.73R WCI  30
JOLIET*        MOCLDY    41  33  72 SW9       29.73R
WAUKEGAN       CLOUDY    44  32  62 SW14G22   29.64R
DUPAGE AIRPORT CLOUDY    40  33  76 SW15      29.68R
KANKAKEE*      PTCLDY    38  31  76 SW15G22   29.76R WCI  29
WHEELING       CLOUDY    44  33  65 SW8G18    29.67S
MORRIS*        PTCLDY    38  32  78 SW9       29.72R WCI  32
ROMEOVILLE*    CLOUDY    40  32  73 SW12      29.72R
NORTHERLY ISL    N/A     43  31  63 SW9         N/A
$$

LMZ740>746-211400-
SOUTHERN LAKE MICHIGAN

STATION/POSITION SKY/WX   TEMP    WIND        PRES    VSBY  WAVE
                          AIR SEA DIR/SP/G                  HT/PER
                          (F)     (DEG/KT/KT) (MB)    (MI)  (FT/S)
SOUTHERN BUOY              46 48  240/ 23/ 29 1002.4          7/ 7
HARRISON CRIB              46     230/ 23/ 29   N/A
BURNHAM HARBOR             43     200/  8/ 13   N/A
CALUMET HARBOR             41     210/ 13/ 16 1005.1R
BURNS HARBOR               42     200/ 20/ 25 1006.1R
MICHIGAN CITY              41     190/ 17/ 20   N/A
$$

ILZ025>027-034>036-040-047-049-050-058-095>099-211400-
WEST-CENTRAL ILLINOIS

CITY           SKY/WX    TMP DP  RH WIND       PRES   REMARKS
QUINCY         CLOUDY    42  32  67 W8        29.80R
GALESBURG*     MOCLDY    41  34  74 W12       29.79R
MACOMB*        CLOUDY    41  33  73 W10       29.81R
JACKSONVILLE*  PTCLDY    40  31  67 SW10      29.81R
PITTSFIELD*    CLOUDY    43  32  65 S3        29.82R
$$

ILZ028>032-037-038-041>044-048-051>054-059>061-211400-
CENTRAL ILLINOIS

CITY           SKY/WX    TMP DP  RH WIND       PRES   REMARKS
PONTIAC        PTCLDY    39  34  80 SW13G18   29.77R WCI  32
BLOOMINGTON    CLOUDY    38  31  76 SW16      29.78R WCI  29
DECATUR        CLEAR     39  30  70 SW13      29.82R WCI  31
PEORIA         CLOUDY    37  32  82 SW5       29.79R WCI  33
LACON*         CLOUDY    41  32  70 SW8       29.76R
LINCOLN*       CLOUDY    38  32  79 S6        29.79R WCI  34
SPRINGFIELD    CLOUDY    41  31  67 S10       29.81R
TAYLORVILLE    PTCLDY    36  30  79 S9        29.82S WCI  29
$$

ILZ033-039-045-046-055>057-062-063-211400-
EAST-CENTRAL ILLINOIS

CITY           SKY/WX    TMP DP  RH WIND       PRES   REMARKS
CHAMPAIGN      CLEAR     37  30  75 S17       29.81R WCI  27
DANVILLE*      CLEAR     37  29  74 S16       29.78S WCI  27
RANTOUL*       CLEAR     39  32  75 S9        29.80R WCI  33
MATTOON        PTCLDY    38  30  73 S12       29.84R WCI  30
PARIS*         CLOUDY    39  31  72 S16G22    29.85R WCI  30
$$

ILZ079-100>102-211400-
SOUTHWEST ILLINOIS

CITY           SKY/WX    TMP DP  RH WIND       PRES   REMARKS
ALTON          MOCLDY    39  32  75 S12       29.85R WCI  32
BELLEVILLE     CLOUDY    40  29  64 SW10      29.86R
CAHOKIA*       PTCLDY    38  28  67 S5        29.86R WCI  34
SPARTA*        PTCLDY    39  30  70 S13G18    29.90R WCI  31
$$

ILZ064>066-069>071-074>076-080>082-084>086-088>090-092>094-211400-
SOUTH-CENTRAL ILLINOIS

CITY           SKY/WX    TMP DP  RH WIND       PRES   REMARKS
CARBONDALE     CLEAR     40  30  67 S10       29.93S
CAIRO*         CLEAR     38  30  74 S10       29.99S WCI  31
EFFINGHAM*     CLEAR     40  30  68 S5        29.89R
MARION         PTCLDY    39  30  70 S9        29.95S WCI  33
MT. VERNON     CLEAR     39  30  70 S10       29.91S WCI  32
CENTRALIA*     PTCLDY    42  32  68 S15       29.88R
SALEM*         CLOUDY    42  30  62 S14       29.88R
METROPOLIS*    CLEAR     38  30  71 S6        30.00S WCI  34
$$

ILZ067-068-072-073-078-083-087-091-211400-
SOUTHEAST ILLINOIS

CITY           SKY/WX    TMP DP  RH WIND       PRES   REMARKS
LAWRENCEVILLE  CLOUDY    36  29  75 S9        29.92S WCI  29
FLORA*         PTCLDY    41  31  67 S14G20    29.90R
FAIRFIELD*     CLEAR     37  30  75 S3        29.91S
HARRISBURG*    CLEAR     40  30  65 S9        29.96S
ROBINSON*      CLEAR     39  28  65 S12       29.90S WCI  32
CARMI*         CLEAR     37  30  77 S9        29.94F WCI  30
$$

ABBREVIATIONS USED IN REMARKS
   TC - TEMPERATURE IN CELSIUS
  WCI - WIND CHILL INDEX
   HX - HEAT INDEX
  VSB - VISIBILITY
$$





USA.gov is the U.S. government's official web portal to all federal, state and local government web resources and services.